Regional Weather Roundup
Issued by NWS

Home | Current Version | Previous Version | Graphics & Text | Print | Product List | Glossary On
Versions: 1 2 3 4 5 6 7 8 9 10 11 12 13 14 15 16 17 18 19 20 21 22 23 24 25 26 27 28 29 30 31 32 33 34 35 36 37 38 39 40 41 42 43 44 45 46 47 48 49 50
000
ASUS43 KLSX 011559
RWRMO

WEATHER SUMMARY FOR MISSOURI
NATIONAL WEATHER SERVICE SPRINGFIELD MO
1000 AM CST SUN MAR 01 2015

NOTE: "FAIR" INDICATES FEW OR NO CLOUDS BELOW 12,000 FEET WITH NO
       SIGNIFICANT WEATHER AND/OR OBSTRUCTIONS TO VISIBILITY.
       CURRENT SKY AND/OR WEATHER CONDITIONS ARE NOT AVAILABLE FOR
       CHILLICOTHE AND FARMINGTON.

MOZ001>031-035>038-043-044-053-054-011700-
...NORTHERN AND WESTERN MISSOURI...

CITY           SKY/WX    TMP DP  RH WIND       PRES   REMARKS
KANSAS CTY INT SUNNY     27  20  75 N6        30.39S WCI  20
KANSAS C DTWN  PTSUNNY   27  20  75 NW5       30.40S WCI  22
LEE`S SUMMIT   PTSUNNY   26  19  74 N8        30.39S WCI  18
ST JOSEPH      MOSUNNY   25  20  81 NW6       30.42R WCI  18
CHILLICOTHE      N/A     28  20  71 N5        30.42R WCI  23
KIRKSVILLE     CLOUDY    24  19  81 NW3       30.38F

$$
MOZ066>068-077>081-088>096-101>105-011700-
...SOUTHWEST MISSOURI...

CITY           SKY/WX    TMP DP  RH WIND       PRES   REMARKS
SPRINGFIELD    CLOUDY    28  26  92 N6        30.36R FOG     WCI  22
JOPLIN         CLOUDY    27  25  92 N6        30.40R WCI  20

$$
MOZ032>034-039>042-045>050-055>058-069>072-011700-
...CENTRAL MISSOURI...

CITY           SKY/WX    TMP DP  RH WIND       PRES   REMARKS
COLUMBIA       SNOW      26  23  88 NW6       30.38R VSB 1/2 WCI  19
JEFFERSON CITY LGT SNOW  27  24  89 W6        30.40R FOG     WCI  20
ROLLA          CLOUDY    26  24  92 NW6       30.34F FOG     WCI  19
SEDALIA        LGT SNOW  25  21  85 NW6       30.40F FOG     WCI  18
OSAGE BEACH    CLOUDY    27  25  93 N3        30.37F

$$
MOZ051-052-059>065-011700-
...EAST CENTRAL MISSOURI...

CITY           SKY/WX    TMP DP  RH WIND       PRES   REMARKS
ST LOUIS INTL  FRZ DRZL  30  27  88 W5        30.39S VSB 1   WCI  25
SPIRIT OF STL  CLOUDY    27  26  96 W5        30.40R FOG     WCI  22
ST CHARLES     CLOUDY    27  25  92 W5        30.40S FOG     WCI  22

$$
MOZ072>076-082>087-097>100-106>115-011700-
...SOUTH CENTRAL AND SOUTHEAST MISSOURI...

CITY           SKY/WX    TMP DP  RH WIND       PRES   REMARKS
CAPE GIRARDEAU CLOUDY    34  32  92 N5        30.37S FOG     WCI  30
FARMINGTON     CLOUDY    30  27  86 CALM      30.39R
POPLAR BLUFF   CLOUDY    34  29  82 NW7       30.38R WCI  28
WEST PLAINS    CLOUDY    32  30  92 W5        30.35R FOG     WCI  27

$$


USA.gov is the U.S. government's official web portal to all federal, state and local government web resources and services.